TimeEEST,TemperatureF,Dew PointF,Humidity,Sea Level PressureIn,VisibilityMPH,Wind Direction,Wind SpeedMPH,Gust SpeedMPH,PrecipitationIn,Events,Conditions,WindDirDegrees,DateUTC
12:50 AM,77.0,69.8,78,29.89,6.2,Calm,Calm,-,N/A,,Partly Cloudy,0,2013-08-19 21:50:00
1:50 AM,75.2,69.8,83,29.89,6.2,Calm,Calm,-,N/A,,Partly Cloudy,0,2013-08-19 22:50:00
2:50 AM,75.2,71.6,89,29.89,6.2,Calm,Calm,-,N/A,,Partly Cloudy,0,2013-08-19 23:50:00
3:00 AM,75,71,85,29.90,6,Calm,Calm,,,,Scattered Clouds,,2013-08-20 00:00:00
4:50 AM,73.4,69.8,88,29.89,6.2,Calm,Calm,-,N/A,,Partly Cloudy,0,2013-08-20 01:50:00
5:50 AM,71.6,68.0,88,29.89,6.2,ENE,6.9,-,N/A,,Partly Cloudy,70,2013-08-20 02:50:00
6:20 AM,73.4,68.0,83,29.86,6.2,ENE,8.1,-,N/A,,Partly Cloudy,70,2013-08-20 03:20:00
6:50 AM,75.2,68.0,78,29.86,6.2,East,9.2,-,N/A,,Partly Cloudy,80,2013-08-20 03:50:00
7:20 AM,77.0,69.8,78,29.89,6.2,ENE,8.1,-,N/A,,Partly Cloudy,70,2013-08-20 04:20:00
7:50 AM,77.0,69.8,78,29.89,6.2,ENE,9.2,-,N/A,,Partly Cloudy,70,2013-08-20 04:50:00
8:20 AM,78.8,66.2,65,29.89,6.2,ENE,9.2,-,N/A,,Partly Cloudy,70,2013-08-20 05:20:00
8:50 AM,80.6,64.4,58,29.89,6.2,ENE,9.2,-,N/A,,Partly Cloudy,60,2013-08-20 05:50:00
9:00 AM,81,65,49,29.89,6,ENE,9.2,,,,Scattered Clouds,60,2013-08-20 06:00:00
9:20 AM,82.4,66.2,58,29.89,6.2,NE,8.1,-,N/A,,Partly Cloudy,50,2013-08-20 06:20:00
9:50 AM,84.2,62.6,48,29.89,-9999.0,NE,5.8,-,N/A,,Clear,50,2013-08-20 06:50:00
10:20 AM,86.0,59.0,40,29.89,-9999.0,NNE,5.8,-,N/A,,Clear,30,2013-08-20 07:20:00
10:50 AM,87.8,57.2,35,29.89,-9999.0,NE,6.9,-,N/A,,Clear,40,2013-08-20 07:50:00
11:20 AM,87.8,57.2,35,29.89,-9999.0,NE,6.9,-,N/A,,Clear,40,2013-08-20 08:20:00
11:50 AM,91.4,50.0,24,29.89,-9999.0,NE,8.1,-,N/A,,Clear,40,2013-08-20 08:50:00
12:20 PM,93.2,48.2,21,29.86,-9999.0,NE,6.9,-,N/A,,Clear,50,2013-08-20 09:20:00
12:50 PM,95.0,46.4,19,29.86,6.2,NE,6.9,-,N/A,,Partly Cloudy,50,2013-08-20 09:50:00
1:20 PM,89.6,68.0,49,29.86,6.2,WNW,9.2,-,N/A,,Partly Cloudy,290,2013-08-20 10:20:00
1:50 PM,89.6,62.6,40,29.86,6.2,West,12.7,-,N/A,,Partly Cloudy,280,2013-08-20 10:50:00
2:20 PM,89.6,66.2,46,29.86,6.2,West,13.8,-,N/A,,Partly Cloudy,280,2013-08-20 11:20:00
2:50 PM,89.6,62.6,40,29.83,6.2,West,13.8,-,N/A,,Partly Cloudy,280,2013-08-20 11:50:00
3:00 PM,89,62,30,29.85,6,West,13.8,,,,Scattered Clouds,280,2013-08-20 12:00:00
3:20 PM,89.6,64.4,43,29.83,6.2,West,15.0,-,N/A,,Partly Cloudy,270,2013-08-20 12:20:00
3:50 PM,89.6,60.8,38,29.83,6.2,West,15.0,-,N/A,,Partly Cloudy,270,2013-08-20 12:50:00
4:20 PM,89.6,66.2,46,29.83,6.2,West,15.0,-,N/A,,Partly Cloudy,280,2013-08-20 13:20:00
4:50 PM,87.8,69.8,55,29.83,6.2,WNW,15.0,-,N/A,,Partly Cloudy,290,2013-08-20 13:50:00
5:20 PM,87.8,71.6,58,29.83,6.2,WNW,15.0,-,N/A,,Partly Cloudy,300,2013-08-20 14:20:00
5:50 PM,86.0,69.8,58,29.83,6.2,WNW,13.8,-,N/A,,Partly Cloudy,300,2013-08-20 14:50:00
6:20 PM,86.0,71.6,62,29.83,6.2,WNW,11.5,-,N/A,,Partly Cloudy,290,2013-08-20 15:20:00
6:50 PM,84.2,69.8,62,29.83,6.2,WNW,10.4,-,N/A,,Partly Cloudy,290,2013-08-20 15:50:00
7:20 PM,84.2,71.6,66,29.83,6.2,West,10.4,-,N/A,,Partly Cloudy,280,2013-08-20 16:20:00
7:50 PM,82.4,69.8,66,29.83,6.2,West,8.1,-,N/A,,Partly Cloudy,270,2013-08-20 16:50:00
8:20 PM,80.6,69.8,70,29.83,6.2,West,5.8,-,N/A,,Partly Cloudy,270,2013-08-20 17:20:00
8:50 PM,78.8,71.6,78,29.83,6.2,West,5.8,-,N/A,,Partly Cloudy,270,2013-08-20 17:50:00
9:00 PM,80,71,66,29.85,6,West,5.8,,,,Scattered Clouds,270,2013-08-20 18:00:00
9:50 PM,78.8,69.8,74,29.86,6.2,Variable,3.5,-,N/A,,Partly Cloudy,0,2013-08-20 18:50:00
10:50 PM,77.0,69.8,78,29.86,6.2,Calm,Calm,-,N/A,,Partly Cloudy,0,2013-08-20 19:50:00
11:50 PM,73.4,68.0,83,29.86,6.2,Calm,Calm,-,N/A,,Partly Cloudy,0,2013-08-20 20:50:00